Regional Weather Roundup
Issued by NWS

Home | Current Version | Previous Version | Graphics & Text | Print | Product List | Glossary On
Versions: 1 2 3 4 5 6 7 8 9 10 11 12 13 14 15 16 17 18 19 20 21 22 23 24 25 26 27 28 29 30 31 32 33 34 35 36 37 38 39 40 41 42 43 44 45 46 47 48 49 50
000
ASUS45 KBOI 220810
RWRID
WEATHER ROUNDUP FOR IDAHO
NATIONAL WEATHER SERVICE BOISE ID
200 AM MDT TUE JUL 22 2014

NOTE: "FAIR" INDICATES FEW OR NO CLOUDS BELOW 12000 FEET
WITH NO SIGNIFICANT WEATHER AND/OR OBSTRUCTIONS TO VISIBILITY

IDZ012-014-220900-
SOUTHWEST IDAHO


CITY           SKY/WX    TMP DP  RH WIND       PRES   REMARKS
BOISE          CLOUDY    71  55  56 S5        30.08R
CALDWELL       CLOUDY    70  52  52 CALM      30.09R
MOUNTAIN HOME  PTCLDY    64  59  83 SE5       30.10R
$$

IDZ016-017-220900-
SOUTHCENTRAL IDAHO


CITY           SKY/WX    TMP DP  RH WIND       PRES   REMARKS
BURLEY         CLEAR     59  55  87 SW5       30.16R
JEROME         CLEAR     61  53  75 SE6       30.16R
TWIN FALLS     PTCLDY    63  52  67 S9        30.15S
$$

IDZ019>023-220900-
SOUTHEAST IDAHO


CITY           SKY/WX    TMP DP  RH WIND       PRES   REMARKS
IDAHO FALLS    CLOUDY    68  48  48 S10       30.18F
POCATELLO      CLEAR     62  55  77 S8        30.18R
REXBURG        MOCLDY    64  48  56 S13       30.19R
$$

IDZ006-010-011-018-031-032-220900-
CENTRAL IDAHO MOUNTAINS


CITY           SKY/WX    TMP DP  RH WIND       PRES   REMARKS
MCCALL         CLOUDY    59  49  69 CALM      30.19R
HAILEY         MOCLDY    54  48  82 NW3       30.24S
STANLEY          N/A     54  48  80 S3        30.29R
SALMON         CLOUDY    66  46  48 S3        30.08R
CHALLIS        CLOUDY    66  47  50 CALM      30.17R
$$

IDZ002-004-006-007-026-220900-
NORTHERN IDAHO


CITY           SKY/WX    TMP DP  RH WIND       PRES   REMARKS
LEWISTON       CLOUDY    73  40  30 S6        30.00R
LOWELL           N/A     64  52  64 NW5       30.04R
COEUR D`ALENE  MOCLDY    63  48  59 MISG      30.04R
MULLAN PASS    CLOUDY    55  30  38 VRB6      30.21R
$$



USA.gov is the U.S. government's official web portal to all federal, state and local government web resources and services.